Probability
3 3 3 3 3 0 0 0 0 0 0 0 0 0 0 0 0 0 0 0 0 0 0 0 0 0 0 0 0 0 0 0 0 0 0 0 0 0 0 0 0 0 0
3 3 3 3 0 0 0 0 0 0 0 0 0 0 0 0 0 0 0 0 0 0 0 0 0 0 0 0 0 0 0 0 0 0 0 0 0 0 0 0 0 0 0
3 0 0 0 0 0 0 0 0 0 0 0 0 0 0 0 0 0 0 0 0 0 0 0 0 0 0 0 0 0 0 0 0 0 0 0 0 0 0 0 0 0 0
0 0 0 0 0 0 0 0 0 0 0 0 0 0 0 0 0 0 0 0 0 0 0 0 0 0 0 0 0 0 0 0 0 0 0 0 0 0 0 0 0 0 0
0 0 0 0 0 0 0 0 0 0 0 0 0 0 0 0 0 0 0 0 0 0 0 0 0 0 0 0 0 0 0 0 0 0 0 0 0 0 0 0 0 0 0
0 0 0 0 0 0 0 0 0 0 0 0 0 0 0 0 0 0 0 0 0 0 0 0 0 0 0 0 0 0 0 0 0 0 0 0 0 0 0 0 0 0 0
6 3 6 0 0 0 0 0 0 0 0 0 0 0 0 0 0 0 0 0 0 0 0 0 0 0 0 0 0 0 0 0 0 0 0 0 0 0 0 0 0 0 0
3 6 3 3 3 0 0 0 0 0 0 0 0 0 0 0 0 0 0 0 0 0 0 0 0 0 0 0 0 0 0 0 0 0 0 0 0 0 0 0 0 0 0
3 3 0 0 3 0 0 0 0 0 0 0 0 0 0 0 0 0 0 0 0 0 0 0 0 0 0 0 0 0 0 0 0 0 0 0 0 0 0 0 0 0 0
0 0 0 0 0 0 0 0 0 0 0 0 0 0 0 0 0 0 0 0 0 0 0 0 0 0 0 0 0 0 0 0 0 0 0 0 0 0 0 0 0 0 0
0 0 0 0 0 0 0 0 0 0 0 0 0 0 0 0 0 0 0 0 0 0 0 0 0 0 0 0 0 0 0 0 0 0 0 0 0 0 0 0 0 0 0
0 0 0 0 0 3 0 0 0 0 0 0 0 0 0 0 0 0 0 0 0 0 0 0 0 0 0 0 0 0 0 0 0 0 0 0 0 0 0 0 0 0 0
0 0 0 0 0 0 0 0 0 0 0 0 0 0 0 0 0 0 0 0 0 0 0 0 0 0 0 0 0 0 0 0 0 0 0 0 0 0 0 0 0 0 0
0 0 0 0 0 0 0 0 0 0 0 0 0 0 0 0 0 0 0 0 0 0 0 0 0 0 0 0 0 0 0 0 0 0 0 0 0 0 0 0 0 0 0
0 0 0 0 0 0 0 0 0 0 0 0 0 0 0 0 0 0 0 0 0 0 0 0 0 0 0 0 0 0 0 0 0 0 0 0 0 0 0 0 0 0 0
0 0 0 0 0 0 0 0 0 0 0 0 0 0 0 0 0 0 0 0 0 0 0 0 0 0 0 0 0 0 0 0 0 0 0 0 0 0 0 0 0 0 0
0 0 0 0 0 0 0 0 0 0 0 0 0 0 0 0 0 0 0 0 0 0 0 0 0 0 0 0 0 0 0 0 0 0 0 0 0 0 0 0 0 0 0
0 0 0 0 0 0 0 0 0 0 0 0 0 0 0 0 0 0 0 0 0 0 0 0 0 0 0 0 0 0 0 0 0 0 0 0 0 0 0 0 0 0 0
0 0 0 0 0 0 0 0 0 0 0 0 0 0 0 0 0 0 0 0 0 0 0 0 0 0 0 0 0 0 0 0 0 0 0 0 0 0 0 0 0 0 0
0 0 0 0 0 0 0 0 0 0 0 0 0 0 0 0 0 0 0 0 0 0 0 0 0 0 0 0 0 0 0 0 0 0 0 0 0 0 0 0 0 0 0
0 0 0 0 0 0 0 0 0 0 0 0 0 0 0 0 0 0 0 0 0 0 0 0 0 0 0 0 0 0 0 0 0 0 0 0 0 0 0 0 0 0 0
0 0 0 0 0 0 0 0 0 0 0 0 0 0 0 0 0 0 0 0 0 0 0 0 0 0 0 0 0 0 0 0 0 0 0 0 0 0 0 0 0 0 0
0 0 0 0 0 0 0 0 0 0 0 0 0 0 0 0 0 0 0 0 0 0 0 0 0 0 0 0 0 0 0 0 0 0 0 0 0 0 0 0 0 0 0
0 0 0 0 0 0 0 0 0 0 0 0 0 0 0 0 0 0 0 0 0 0 0 0 0 0 0 0 0 0 0 0 0 0 0 0 0 0 0 0 0 0 0
0 0 0 0 0 0 0 0 0 0 0 0 0 0 0 0 0 0 0 0 0 0 0 0 0 0 0 0 0 0 0 0 0 0 0 0 0 0 0 0 0 0 0
0 0 0 0 0 0 0 0 0 0 0 0 0 0 0 0 0 0 0 0 0 0 0 0 0 0 0 0 0 0 0 0 0 0 0 0 0 0 0 0 0 0 0
Height
5790 5790 5789 5789 5789 5787 5786 5785 5785 5784 5782 5781 5780 5778 5777 5776 5774 5772 5770 5768 5765 5762 5759 5757 5754 5751 5747 5744 5741 5738 5736 5733 5731 5730 5727 5726 5724 5722 5720 5718 5715 5713 5710
5787 5786 5786 5785 5785 5784 5782 5781 5780 5779 5778 5777 5775 5774 5772 5771 5769 5767 5765 5763 5760 5757 5754 5751 5748 5745 5742 5739 5735 5732 5730 5727 5725 5723 5721 5718 5716 5714 5711 5708 5706 5703 5701
5784 5783 5782 5782 5781 5780 5778 5777 5776 5775 5774 5773 5772 5770 5768 5767 5765 5763 5760 5758 5755 5752 5749 5746 5743 5739 5736 5733 5730 5727 5724 5721 5718 5716 5714 5711 5708 5705 5702 5699 5697 5694 5692
5781 5780 5779 5779 5778 5776 5775 5774 5772 5771 5770 5769 5768 5766 5764 5763 5760 5758 5756 5753 5751 5747 5744 5741 5737 5734 5731 5728 5724 5721 5718 5715 5712 5709 5706 5703 5700 5697 5694 5691 5689 5686 5683
5778 5777 5776 5775 5774 5773 5771 5770 5769 5768 5767 5765 5764 5762 5760 5758 5756 5754 5752 5749 5746 5743 5739 5736 5733 5729 5726 5722 5719 5715 5712 5708 5705 5702 5699 5696 5693 5689 5686 5683 5680 5677 5674
5776 5775 5774 5773 5771 5769 5768 5767 5766 5764 5763 5762 5760 5758 5756 5754 5752 5750 5747 5745 5741 5738 5735 5732 5728 5724 5720 5717 5713 5709 5706 5702 5699 5695 5692 5689 5685 5682 5679 5675 5672 5669 5666
5773 5772 5771 5769 5768 5766 5765 5763 5762 5761 5760 5758 5756 5754 5752 5750 5748 5745 5743 5740 5737 5733 5730 5727 5723 5719 5715 5711 5707 5703 5699 5695 5692 5689 5685 5682 5678 5675 5671 5668 5664 5661 5658
5769 5768 5767 5766 5764 5763 5761 5760 5759 5757 5756 5754 5752 5750 5748 5746 5743 5741 5738 5735 5732 5728 5725 5722 5718 5714 5710 5706 5702 5698 5694 5690 5686 5682 5679 5675 5672 5668 5664 5661 5657 5653 5650
5765 5764 5763 5762 5760 5759 5757 5756 5754 5753 5751 5749 5747 5745 5743 5741 5739 5736 5733 5730 5727 5723 5720 5717 5713 5710 5706 5701 5697 5693 5689 5685 5680 5676 5673 5669 5665 5661 5658 5654 5650 5646 5643
5761 5760 5758 5757 5755 5754 5752 5751 5750 5748 5746 5744 5742 5741 5739 5737 5734 5731 5728 5725 5722 5719 5715 5712 5708 5704 5700 5696 5692 5688 5684 5679 5675 5671 5667 5663 5659 5655 5651 5647 5643 5639 5635
5756 5755 5754 5752 5750 5749 5747 5746 5744 5743 5741 5739 5737 5736 5733 5731 5728 5726 5723 5720 5717 5714 5710 5707 5703 5699 5695 5691 5686 5683 5679 5675 5670 5666 5662 5658 5654 5650 5646 5641 5637 5632 5628
5751 5750 5748 5747 5745 5744 5742 5741 5739 5737 5735 5734 5732 5730 5727 5725 5723 5720 5718 5715 5712 5708 5705 5701 5698 5694 5690 5686 5682 5678 5673 5669 5665 5661 5657 5653 5650 5646 5641 5636 5632 5627 5623
5745 5744 5743 5742 5740 5738 5737 5735 5733 5732 5730 5728 5727 5724 5722 5720 5717 5715 5712 5709 5706 5703 5700 5696 5693 5689 5685 5681 5677 5672 5668 5664 5660 5657 5653 5649 5645 5641 5636 5632 5627 5622 5618
5740 5739 5737 5736 5735 5733 5731 5730 5728 5726 5725 5723 5721 5719 5717 5714 5712 5710 5707 5704 5701 5698 5695 5692 5688 5685 5681 5677 5672 5667 5663 5659 5655 5652 5649 5645 5640 5636 5631 5627 5622 5618 5614
5735 5734 5732 5731 5730 5728 5726 5725 5723 5721 5720 5718 5716 5714 5712 5710 5707 5705 5702 5699 5697 5694 5691 5687 5684 5680 5676 5672 5667 5663 5659 5655 5651 5648 5644 5640 5636 5631 5626 5622 5617 5613 5609
5730 5729 5728 5726 5725 5723 5722 5720 5718 5717 5715 5713 5711 5709 5707 5705 5702 5700 5697 5694 5692 5689 5686 5682 5679 5675 5671 5667 5663 5658 5654 5650 5646 5642 5639 5635 5631 5626 5622 5617 5612 5608 5604
5725 5724 5723 5721 5720 5718 5717 5716 5714 5712 5710 5709 5707 5705 5703 5700 5698 5695 5692 5690 5687 5684 5680 5677 5674 5670 5666 5662 5658 5654 5650 5646 5642 5638 5633 5629 5625 5621 5616 5612 5607 5603 5599
5719 5718 5717 5716 5715 5713 5712 5711 5709 5708 5706 5704 5702 5700 5698 5696 5693 5691 5688 5685 5682 5678 5675 5672 5668 5665 5661 5657 5653 5648 5645 5641 5637 5633 5628 5624 5620 5615 5611 5606 5602 5598 5594
5713 5713 5712 5711 5710 5708 5707 5706 5705 5703 5701 5700 5697 5696 5693 5691 5689 5686 5683 5680 5677 5674 5670 5666 5663 5659 5655 5651 5647 5644 5640 5636 5632 5628 5623 5619 5614 5610 5605 5601 5596 5592 5588
5708 5707 5706 5705 5704 5703 5702 5701 5700 5698 5697 5695 5693 5691 5689 5686 5684 5681 5678 5675 5672 5669 5665 5662 5658 5654 5650 5646 5643 5639 5635 5631 5627 5623 5619 5614 5610 5605 5600 5596 5591 5587 5582
5702 5701 5700 5700 5699 5698 5697 5696 5695 5693 5692 5690 5688 5686 5684 5682 5679 5676 5674 5671 5667 5664 5661 5657 5654 5650 5646 5642 5639 5635 5631 5627 5623 5619 5615 5610 5606 5601 5596 5591 5586 5582 5577
5695 5695 5694 5694 5693 5693 5692 5691 5690 5689 5687 5686 5684 5681 5679 5677 5674 5672 5669 5666 5663 5660 5657 5653 5650 5646 5642 5638 5635 5631 5628 5624 5620 5616 5611 5607 5602 5597 5592 5587 5582 5577 5573
5690 5689 5689 5688 5687 5687 5686 5686 5685 5684 5682 5681 5679 5677 5675 5672 5670 5667 5665 5662 5659 5656 5653 5650 5646 5643 5639 5635 5632 5628 5625 5621 5617 5612 5608 5603 5599 5594 5589 5584 5579 5574 5569
5684 5683 5683 5682 5682 5681 5681 5680 5679 5678 5677 5675 5674 5672 5670 5668 5665 5663 5661 5658 5655 5653 5650 5646 5643 5640 5636 5633 5629 5626 5622 5618 5614 5610 5605 5600 5596 5591 5586 5580 5576 5571 5566
5677 5677 5677 5676 5676 5676 5675 5675 5673 5672 5671 5670 5669 5667 5665 5663 5661 5659 5656 5654 5652 5649 5646 5643 5640 5637 5634 5630 5627 5623 5619 5615 5611 5607 5602 5598 5593 5588 5583 5577 5572 5568 5563
5672 5671 5671 5671 5671 5670 5670 5669 5668 5667 5666 5665 5663 5661 5660 5658 5656 5654 5652 5650 5648 5645 5643 5640 5637 5634 5631 5628 5624 5621 5617 5613 5609 5605 5600 5595 5590 5585 5580 5575 5570 5566 5562
Wind_Speed
11 11 12 12 13 13 13 12 12 12 12 12 13 13 13 13 14 15 16 17 18 19 20 21 22 22 23 22 22 22 23 23 22 23 24 25 26 27 28 29 30 30 31
10 10 11 11 12 13 12 12 13 12 12 13 12 12 12 13 15 15 17 17 18 19 19 19 20 21 21 20 21 21 21 22 22 22 23 25 26 27 27 28 29 30 30
10 10 10 10 11 12 11 11 12 12 12 12 12 12 12 13 14 15 17 17 18 18 19 19 20 20 20 20 21 21 21 21 22 22 23 24 25 26 26 27 28 29 30
9 9 9 10 11 12 12 12 11 11 11 11 12 12 13 13 14 15 16 17 17 18 19 20 21 20 21 21 21 21 22 22 23 23 24 25 26 26 27 27 27 27 28
9 9 10 11 12 12 12 11 11 11 11 12 12 13 13 14 15 16 16 17 18 18 19 20 20 21 21 21 21 21 22 23 24 24 24 25 26 26 26 27 26 26 26
10 10 11 12 13 12 11 10 10 11 12 12 12 12 13 15 15 16 18 18 19 19 19 20 21 21 21 21 22 22 23 24 24 24 25 25 25 25 25 25 25 26 26
11 11 12 12 12 11 11 11 11 12 13 13 13 14 15 16 17 17 18 18 19 19 20 21 20 20 21 21 22 23 23 23 23 24 24 24 24 24 25 25 25 25 25
13 13 13 13 12 12 12 13 13 14 14 14 14 15 16 17 18 18 19 19 19 19 20 21 21 21 21 21 22 23 23 23 24 24 24 23 23 23 24 24 24 24 25
14 14 14 14 14 14 14 14 15 15 15 15 16 17 17 17 18 19 19 18 19 20 20 21 21 21 22 22 22 22 22 23 23 23 23 23 23 23 23 24 23 24 24
15 15 15 15 15 15 16 16 16 16 16 17 17 17 18 19 19 18 18 19 19 20 21 21 22 22 23 22 22 22 23 23 23 23 23 22 22 23 24 24 24 24 24
16 16 16 16 17 16 16 16 17 17 17 18 18 18 19 19 19 19 19 19 19 20 20 21 22 22 22 23 22 22 23 23 23 22 21 21 22 22 23 24 23 23 23
16 16 17 17 17 17 17 17 17 17 18 18 18 18 18 18 18 18 18 19 19 20 20 21 21 21 22 23 22 22 23 23 22 21 20 20 21 21 23 24 24 22 21
16 16 16 16 17 17 16 16 17 17 17 17 17 16 16 17 17 18 18 18 19 19 19 20 20 21 22 23 23 23 23 22 20 19 20 21 21 22 23 23 23 21 20
16 16 16 16 16 15 15 16 16 16 16 16 16 16 16 16 17 18 18 18 18 18 18 19 20 22 23 23 24 24 23 21 19 19 20 21 22 23 24 24 22 21 21
17 16 16 15 15 15 15 15 16 16 16 15 16 16 17 17 17 17 17 17 18 18 19 20 21 22 23 23 23 23 23 21 20 20 20 21 22 22 24 24 22 21 21
16 16 15 15 15 15 15 15 16 16 16 15 16 17 17 17 16 17 17 18 18 19 21 21 21 21 22 23 23 23 22 21 21 21 20 21 22 22 22 22 21 21 22
16 16 16 15 15 15 15 16 16 16 16 16 17 17 17 17 17 17 17 18 19 20 20 21 21 22 22 22 22 22 22 21 21 22 22 22 22 23 23 22 21 21 21
16 16 16 16 16 16 16 16 16 16 16 16 17 17 17 17 17 17 18 18 19 19 20 21 21 21 22 22 22 22 22 21 21 22 22 23 23 23 23 22 22 22 22
16 16 16 16 16 16 16 16 16 16 16 16 16 16 16 17 17 18 18 18 18 19 20 20 21 22 22 22 21 21 21 20 21 21 22 22 23 23 23 23 23 23 22
17 16 16 16 16 15 15 15 15 16 16 16 17 17 16 17 17 18 18 17 17 18 19 20 20 20 20 20 20 20 20 20 20 21 21 22 22 23 23 23 23 23 23
17 17 16 16 16 16 16 16 16 16 17 17 17 17 17 17 17 17 17 16 17 18 18 19 19 20 20 20 19 19 19 19 20 20 21 22 22 23 23 23 23 23 23
18 17 16 16 16 15 15 16 16 16 17 17 16 17 17 16 16 17 16 16 16 17 17 18 19 19 18 18 18 18 18 19 20 21 21 22 22 22 22 23 23 23 22
17 17 17 17 16 16 16 16 17 17 17 17 17 17 16 16 16 16 16 16 16 16 17 18 18 17 18 17 17 18 19 19 20 20 21 21 22 22 23 23 23 22 21
18 17 17 17 16 15 16 17 17 17 17 17 17 17 17 16 16 16 16 16 16 16 17 17 17 17 17 16 17 18 19 19 20 20 21 21 22 23 23 22 22 21 20
17 17 17 17 16 15 16 16 17 17 17 17 17 17 17 17 16 16 16 16 16 16 16 17 17 17 17 16 17 18 18 19 20 21 22 22 23 23 23 22 21 20 18
17 16 16 16 16 16 16 16 17 17 17 17 17 17 17 17 16 16 16 16 16 16 16 16 16 16 17 17 17 18 18 19 20 20 21 22 23 23 23 22 20 18 17
Wind_Direction
283 280 277 282 286 290 291 287 288 289 291 294 291 292 294 296 303 304 302 303 303 303 301 299 299 299 299 298 297 296 295 294 291 288 286 284 283 283 282 281 280 280 280
289 286 285 285 290 292 289 284 283 284 287 295 297 295 296 299 302 304 305 305 306 308 308 306 304 302 300 301 300 300 300 298 296 294 292 290 288 289 287 284 283 283 281
292 290 291 292 295 295 291 288 286 287 290 294 295 297 299 303 305 306 308 308 309 309 311 310 308 305 302 303 303 302 302 301 300 297 295 294 292 290 291 289 287 286 284
292 289 290 293 296 296 293 291 291 291 292 294 295 297 300 304 309 311 310 311 312 312 312 312 310 307 306 307 305 303 301 301 301 299 297 295 294 293 293 292 289 288 286
302 300 297 297 299 298 294 290 291 291 292 294 297 298 300 304 308 310 311 313 313 313 313 313 313 312 310 308 308 306 305 303 303 302 300 299 298 297 295 296 293 291 289
301 300 299 299 299 298 295 293 291 291 294 297 301 303 304 305 306 306 310 313 315 315 314 314 315 313 313 311 310 309 309 308 306 305 304 303 302 300 298 297 295 293 291
297 294 294 296 297 295 294 292 292 293 295 298 301 303 304 305 306 309 310 312 314 315 316 317 319 317 315 313 312 312 312 312 309 309 308 306 304 302 301 300 298 295 293
294 294 295 295 295 293 293 292 293 294 295 297 300 301 302 304 306 308 308 309 312 316 317 318 318 319 317 317 317 316 316 315 312 310 309 307 304 304 306 305 301 296 294
293 293 292 291 292 290 290 291 292 293 295 297 299 302 302 303 305 306 304 311 313 315 316 317 317 317 317 316 317 318 318 318 317 314 312 311 307 306 308 307 305 301 299
290 290 290 290 290 290 289 290 291 293 295 297 299 300 300 302 304 306 309 311 311 313 315 316 317 317 318 318 317 317 319 319 319 318 317 316 314 312 311 310 308 306 303
288 288 290 289 289 288 288 289 291 293 295 296 296 298 300 303 305 307 309 310 311 312 314 315 315 317 319 320 320 318 318 317 318 317 317 318 318 317 315 314 313 312 309
288 288 289 287 287 287 288 289 291 294 296 297 298 299 300 302 304 306 308 310 311 312 314 314 314 316 319 320 321 320 318 316 317 318 318 318 319 319 319 319 319 317 315
287 288 289 289 288 288 288 289 291 294 296 297 299 299 300 301 304 306 308 311 313 314 314 315 316 318 320 320 320 321 320 317 316 317 321 322 322 321 321 321 322 321 321
290 290 291 290 289 289 290 291 293 295 296 297 298 300 301 304 306 308 308 310 313 314 316 316 317 318 319 320 322 322 322 319 317 316 317 320 320 321 322 321 320 320 320
287 288 289 291 290 290 292 295 297 297 298 299 299 301 304 306 308 308 307 309 312 312 314 314 316 318 319 319 321 322 321 319 317 317 318 318 318 319 321 322 321 320 318
286 286 286 289 290 290 293 296 299 300 299 299 300 302 305 306 306 308 307 308 310 312 314 316 316 318 319 321 322 322 322 321 319 318 319 320 320 320 320 321 321 320 318
283 283 285 287 289 290 293 296 296 298 299 299 299 302 305 306 305 307 307 307 310 313 316 318 318 318 319 321 322 322 321 322 322 321 321 321 321 320 320 320 319 318 317
279 280 284 286 287 289 293 295 294 295 297 297 298 300 302 304 305 308 310 312 314 315 317 318 318 318 319 319 321 323 321 320 321 322 321 321 321 321 319 318 317 317 317
276 277 280 284 286 288 291 294 294 295 296 297 298 300 302 303 305 307 308 311 317 319 320 320 320 319 319 320 321 324 322 321 323 324 324 324 324 323 322 319 317 317 317
276 277 278 281 284 285 289 291 293 295 297 298 298 299 300 302 305 305 307 311 317 321 323 323 322 322 323 323 323 324 324 324 325 326 328 329 328 327 326 323 321 319 318
274 275 274 277 279 282 286 288 290 292 296 298 298 300 302 304 306 307 308 310 315 320 322 322 323 323 324 324 325 326 326 328 329 330 330 331 330 329 329 328 326 324 322
273 272 274 277 279 281 284 287 290 292 294 297 298 301 304 305 306 308 308 309 314 318 320 322 325 326 328 329 330 331 330 330 332 333 333 334 333 332 332 332 330 328 325
274 274 275 277 278 279 282 285 288 290 292 293 295 298 302 305 308 309 310 311 314 318 321 324 326 329 331 333 333 334 335 335 335 336 337 336 336 336 335 334 333 331 329
273 274 276 279 279 278 280 283 286 288 289 291 293 296 299 302 305 308 310 314 317 318 319 322 327 330 332 332 332 334 334 335 336 339 340 340 340 338 337 336 335 333 332
273 274 275 277 277 277 278 281 284 286 287 288 291 294 297 299 301 304 307 311 315 318 319 321 324 328 331 332 331 333 334 336 338 339 341 342 343 342 341 339 339 339 340
277 278 276 274 275 277 278 279 283 286 287 288 288 290 294 297 299 300 303 308 312 315 318 320 323 325 328 329 332 336 336 336 338 340 343 345 347 347 346 347 347 346 346